User: anonymous   Login
Location: Berkeley
(37.8716°N, 122.2727°W)
Time: 23:12:57
(UTC-07:00)
Language:

Envisat - Orbit

View from above orbital plane
View from above orbital plane
View from above satellite
View from above satellite

Ground track
Ground track

The orbit data is extracted from the following two-line orbital elements,

1 27386U 02009A   19081.07641791 -.00000004  00000-0  12215-4 0  9991
2 27386  98.1567 106.5960 0001176  77.1512 282.9842 14.37943759893466
Epoch (UTC): 22 March 2019 01:50:02
Eccentricity: 0.0001176
inclination: 98.1567°
perigee height: 764 km
apogee height: 766 km
right ascension of ascending node: 106.5960°
argument of perigee: 77.1512°
revolutions per day: 14.37943759
mean anomaly at epoch: 282.9842°
orbit number at epoch: 89346

The dashed part of the orbit path shows where the satellite is in the earth's shadow,  

DLR